Temp
17 17 17 17 17 17 17 17 18 18 18 18 18 18 18 19 19 19 19 19 19 19 19 19 19 19 19 19 19 19 19 20 20 19 18 17 17 17 17 18 18 19 19 19 20 21 21 20 20 20 21 21 19 20 20 20 19 20 20 19 19 18 17 17 16 16 15 12 10 10 10 10 9 9 8 7 6 5 5 5 4 4 3 3 3 3 4 5
17 17 17 17 17 17 18 18 18 18 18 18 18 18 18 18 18 18 19 19 19 19 19 19 19 19 19 19 19 20 20 20 20 18 17 17 18 17 17 18 18 19 19 19 20 20 20 20 18 19 21 21 19 20 20 19 20 20 19 18 18 16 14 13 14 14 13 10 8 8 8 8 8 8 7 6 4 4 5 4 4 4 3 3 2 3 3 4
18 18 18 18 18 18 18 18 18 18 18 18 18 18 18 18 18 18 18 18 18 19 19 19 19 19 19 19 19 20 20 20 19 18 18 18 18 17 18 18 18 19 19 19 19 19 19 19 18 19 21 21 19 20 21 20 20 19 18 19 16 14 12 11 12 12 10 9 8 7 6 6 5 6 6 4 3 3 3 3 3 3 2 2 2 2 2 2
18 18 18 18 18 18 18 18 18 19 18 19 19 19 19 18 18 18 18 18 18 19 19 19 19 19 19 19 19 20 20 19 18 17 18 18 18 18 18 18 18 19 19 19 20 19 19 18 18 19 20 21 19 19 20 20 19 18 17 18 14 13 13 11 10 10 9 8 8 7 7 6 4 4 4 5 7 3 1 2 2 2 2 1 1 1 1 1
18 18 18 18 18 18 19 19 19 19 19 19 19 19 19 19 19 18 18 18 18 19 19 19 19 19 19 19 19 20 20 19 18 18 18 18 18 18 18 18 19 19 19 20 20 19 19 18 18 20 20 21 20 20 20 19 18 16 13 13 13 13 12 10 9 9 8 8 7 7 7 6 3 3 3 5 6 3 1 2 1 2 1 1 1 1 1 0
18 18 19 19 19 19 19 19 19 19 19 19 19 19 19 19 19 19 18 18 18 19 19 19 19 19 19 19 19 20 20 18 18 18 18 18 18 18 18 18 19 19 19 20 20 19 19 18 19 20 20 20 19 19 19 16 17 17 13 11 12 12 11 10 9 8 7 7 7 6 5 4 3 3 1 2 2 1 1 1 1 1 1 1 1 1 0 -0
19 19 19 19 19 19 19 19 19 19 19 19 19 19 19 19 19 19 19 19 19 19 19 19 19 19 19 19 19 19 19 18 18 18 18 18 18 18 18 18 19 19 19 20 20 19 20 20 20 20 20 20 19 17 16 14 15 16 13 10 10 9 9 8 7 6 6 6 5 5 4 3 4 4 2 1 1 1 1 1 1 1 1 1 0 0 0 -0
19 19 19 19 19 19 19 19 19 19 19 19 19 19 19 19 19 19 19 19 19 19 19 19 19 19 19 19 19 18 17 17 18 18 18 18 18 18 18 19 19 19 20 19 19 19 20 20 19 19 20 19 18 17 16 15 15 13 11 9 8 8 7 6 6 5 5 5 4 4 4 3 3 3 1 1 1 1 1 1 1 0 0 0 -0 -0 -0 -1
19 19 19 19 19 19 19 19 19 19 19 20 19 19 19 19 19 19 19 19 19 19 19 19 19 19 19 19 18 18 17 18 18 18 17 18 18 18 18 18 19 20 19 18 18 19 19 19 18 19 20 18 18 17 16 17 16 12 10 9 8 7 6 6 6 6 5 5 5 4 3 2 3 3 2 1 1 1 1 1 0 -0 -0 -1 -1 -1 -1 -1
19 19 20 20 19 19 19 19 19 19 19 20 20 19 19 19 19 19 19 19 19 19 19 19 19 19 20 19 18 18 18 18 18 18 17 17 18 18 18 18 18 19 19 18 18 18 18 19 17 17 19 18 17 16 15 17 14 10 10 8 8 8 7 7 6 6 6 5 5 4 3 3 4 4 3 2 1 1 0 0 -0 -1 -1 -1 -1 -1 -1 -1
19 20 20 20 20 20 19 19 19 19 19 19 20 20 20 20 20 20 19 20 19 19 19 19 20 20 20 19 18 18 18 18 18 17 17 18 18 18 18 18 18 19 18 18 17 17 18 18 16 17 19 19 16 14 13 13 11 9 10 9 8 8 8 7 7 7 7 6 6 5 5 4 4 4 3 2 2 1 0 -0 -0 -1 -1 -1 -1 -2 -1 -1
20 20 20 20 20 20 19 19 19 19 19 19 19 20 20 20 20 20 20 20 19 19 19 20 20 20 19 18 17 17 18 18 18 17 17 18 18 18 18 18 18 18 18 18 17 17 17 17 17 18 18 18 15 14 12 11 11 11 11 10 9 9 9 8 8 9 9 7 6 7 9 7 3 3 2 1 1 0 -0 -0 -1 -1 -1 -1 -1 -2 -2 -1
20 20 20 20 20 20 20 19 19 19 19 19 19 19 20 20 20 20 20 20 20 19 19 20 20 20 19 18 17 18 18 18 17 17 18 18 18 18 18 18 18 18 18 18 17 17 18 17 18 17 16 17 15 14 13 12 12 12 11 10 10 11 11 9 9 10 9 8 6 8 12 8 2 2 2 1 1 0 0 -0 -0 -1 -1 -1 -1 -2 -2 -2
20 20 20 20 20 20 19 19 19 19 19 19 19 19 19 20 20 20 20 20 20 20 20 20 20 19 18 18 18 18 18 18 17 17 18 18 18 18 18 18 18 18 18 18 17 17 18 18 18 16 15 15 14 14 13 13 13 12 12 11 11 12 11 9 8 9 10 9 6 8 12 8 3 2 2 1 1 0 0 -0 -0 -0 -1 -1 -1 -1 -2 -2
19 20 20 20 20 20 19 19 19 19 19 19 19 19 19 19 19 19 20 20 20 20 20 20 20 19 18 18 18 18 18 18 17 16 17 18 18 18 18 18 18 18 18 18 17 18 17 17 17 15 14 13 14 15 14 14 13 12 13 13 12 11 11 9 7 7 9 9 7 9 12 8 4 3 2 2 1 1 1 0 -0 -0 -0 -1 -1 -1 -2 -2
19 19 20 20 20 20 19 19 19 19 19 19 19 19 19 19 19 19 20 20 20 20 20 20 19 19 18 18 18 18 17 17 17 16 17 17 17 18 18 19 18 18 18 18 18 18 17 17 15 13 14 14 14 15 14 14 14 12 13 14 12 12 11 10 9 6 7 9 8 9 11 7 4 4 2 2 2 1 0 0 0 -0 -0 -1 -1 -1 -2 -2
19 19 19 20 20 20 19 19 19 19 19 19 19 19 19 19 19 20 20 20 20 20 20 19 18 19 18 17 17 17 16 16 17 17 17 17 17 18 18 18 17 17 18 18 18 17 15 15 13 12 13 12 11 14 15 14 14 13 13 12 11 11 11 11 11 8 5 9 9 7 8 6 3 3 2 2 2 1 1 0 0 -0 -0 -0 -1 -1 -1 -2
19 19 19 20 20 20 20 20 19 19 19 19 19 19 20 20 20 20 19 20 20 20 20 19 18 19 17 17 16 16 16 16 16 16 17 17 17 17 18 16 15 16 18 17 17 15 14 13 13 14 13 11 11 13 16 15 14 14 13 13 11 10 11 11 10 8 6 7 7 6 6 4 2 2 2 2 1 1 1 0 0 0 0 -0 -1 -1 -1 -1
19 19 19 19 20 20 20 20 19 19 19 19 19 20 20 20 20 20 18 19 19 19 18 16 16 17 16 16 15 15 17 17 16 16 16 17 17 17 17 15 14 16 17 17 15 13 13 13 13 13 13 11 10 11 13 13 13 13 12 12 13 11 10 9 8 6 6 7 6 5 6 3 2 2 2 2 1 1 1 0 0 0 -0 -0 -1 -1 -1 -1
19 19 19 19 20 20 20 20 20 20 20 20 20 20 20 20 19 18 16 16 15 15 16 15 15 16 16 16 15 16 17 17 16 15 16 16 16 17 16 14 15 15 14 14 14 13 12 12 11 10 10 9 9 8 9 10 10 11 11 11 11 10 9 7 7 5 5 8 6 3 4 2 2 2 1 2 1 0 1 0 0 0 -0 -0 -1 -1 -1 -2
19 19 19 19 20 20 20 20 20 20 20 20 20 20 19 18 18 17 15 14 13 13 15 15 15 16 16 15 15 15 15 16 16 15 15 15 15 17 15 14 17 15 12 11 12 12 12 11 10 9 8 7 7 7 9 10 9 10 11 11 10 9 9 7 7 6 5 8 6 2 3 3 2 2 2 1 1 1 1 0 0 -0 -0 -0 -1 -1 -1 -2
19 19 19 19 20 20 20 20 20 20 20 20 20 18 16 16 18 17 16 16 15 14 15 15 15 15 15 15 15 15 14 15 16 15 15 15 15 17 14 12 14 13 11 12 13 13 12 11 10 8 7 8 8 8 10 11 10 10 10 11 11 9 8 7 7 6 5 7 6 3 4 4 3 3 2 1 1 1 1 1 1 0 -0 -0 -1 -1 -1 -2
19 19 19 19 20 20 20 20 20 20 19 19 19 17 15 16 17 17 17 17 16 14 15 15 15 15 15 16 15 15 14 14 14 14 14 14 14 14 13 12 12 11 10 12 13 13 12 11 9 7 7 9 10 8 10 12 10 10 11 11 11 8 9 10 8 5 4 6 5 3 4 5 3 3 3 2 1 1 1 1 0 0 0 0 -0 -1 -1 -1
19 19 19 19 19 19 19 19 20 19 19 19 18 16 16 17 17 16 16 16 16 16 15 14 14 15 15 15 14 15 14 13 13 13 13 13 13 13 12 11 11 11 9 9 11 11 12 10 7 8 8 9 12 10 10 12 11 10 11 11 10 9 9 9 7 6 5 5 4 4 6 7 4 3 3 3 2 1 2 1 1 0 0 0 -0 -0 -1 -1
19 20 19 19 19 19 19 19 19 18 18 17 17 16 16 17 17 17 17 16 17 16 15 15 14 15 15 15 15 14 14 14 13 13 12 12 12 13 13 11 12 12 10 10 11 10 10 8 7 9 9 9 12 11 8 10 11 11 11 10 11 10 9 8 7 7 9 8 5 5 10 11 6 3 3 3 2 2 2 2 1 1 0 -0 -0 -0 -1 -1
19 19 19 19 19 18 18 18 17 17 17 16 15 16 17 17 17 17 18 17 17 16 16 16 16 15 15 14 13 12 14 15 13 13 13 12 12 13 13 11 11 11 10 10 11 10 10 8 7 9 10 10 11 11 8 9 12 12 10 9 10 10 9 9 8 9 11 10 6 5 10 11 9 7 5 2 2 2 2 2 1 1 1 0 -0 -0 -0 -1
18 19 19 19 18 18 18 18 17 17 17 16 15 16 17 17 17 17 18 18 17 15 15 16 16 16 16 14 11 13 15 14 13 13 12 12 11 12 14 12 11 11 9 10 11 11 10 9 9 9 10 11 11 11 9 8 11 12 9 8 9 9 9 9 9 10 9 8 6 5 8 9 10 9 4 1 3 2 2 2 2 2 1 1 1 0 0 -0
18 19 19 18 18 18 18 18 17 16 16 16 16 17 17 17 17 18 19 18 16 15 15 15 16 16 15 13 12 13 14 12 14 14 12 12 12 12 13 11 10 10 8 10 13 10 9 10 10 10 10 10 10 10 8 8 11 10 7 6 7 8 8 8 8 9 8 8 8 7 7 8 10 8 2 1 3 3 3 4 3 3 2 1 1 1 1 0
18 18 18 17 18 18 18 18 18 16 16 16 17 17 18 18 18 18 18 17 15 15 14 15 16 15 13 13 13 12 12 12 12 12 11 12 12 11 12 9 9 10 8 10 12 10 9 9 8 9 10 10 10 9 8 9 10 8 6 6 6 7 7 7 8 9 8 9 10 8 7 8 10 10 6 3 5 7 7 5 3 3 3 2 2 1 1 1
17 17 17 17 17 17 17 17 17 16 16 17 18 18 18 19 18 18 18 16 15 14 14 14 14 13 12 14 14 11 12 11 10 10 10 11 11 10 9 9 10 11 10 10 10 9 9 8 7 8 9 8 9 8 7 7 8 7 7 8 8 8 8 7 7 9 9 9 10 9 8 8 9 11 9 7 8 10 10 8 6 5 3 2 2 2 1 1
16 17 17 17 17 17 17 16 16 16 16 17 18 18 19 18 17 18 17 15 14 14 13 13 12 11 11 12 12 11 11 11 9 10 11 10 10 10 9 10 11 12 12 11 10 10 9 9 9 8 7 7 8 9 7 6 5 6 9 10 10 10 9 9 9 9 10 10 10 8 7 8 9 10 10 9 8 7 8 10 11 9 5 3 2 2 1 1
16 16 16 17 16 17 17 16 15 16 16 17 17 17 18 18 16 17 15 13 14 13 12 12 11 11 11 11 11 10 11 11 9 9 9 8 8 7 8 8 9 11 13 11 11 11 11 10 9 8 7 7 9 11 10 9 8 9 11 11 12 11 10 11 11 9 9 10 8 7 7 8 8 10 11 10 9 8 6 7 9 9 7 4 2 2 2 1
15 16 16 16 16 16 16 15 15 16 16 17 17 17 18 19 17 14 13 14 14 11 10 11 11 10 11 12 11 10 10 10 9 8 7 8 8 7 6 5 5 9 11 10 10 12 12 11 9 10 9 8 9 11 12 11 10 10 11 11 12 11 10 11 9 7 8 9 7 6 7 8 9 10 11 11 11 8 5 3 4 4 5 4 3 2 1 1
16 16 16 15 15 15 15 15 15 16 16 17 18 18 18 18 15 12 12 13 11 10 10 10 10 11 11 12 11 10 11 10 9 9 9 9 9 8 8 7 6 7 9 9 9 10 12 12 11 10 10 9 9 9 9 10 9 8 8 9 11 11 10 10 10 9 9 8 6 6 7 10 11 11 10 9 7 4 3 2 1 1 2 2 2 1 1 1
16 16 16 15 15 14 14 15 15 16 16 18 18 18 18 17 13 12 13 11 9 10 10 8 10 13 12 11 10 9 10 11 9 9 9 9 9 8 8 7 6 6 8 10 9 8 10 11 10 9 8 8 9 7 6 8 9 7 5 8 11 9 9 9 7 7 6 6 6 6 8 9 10 9 7 4 3 3 3 3 2 3 2 1 1 2 1 0
16 16 16 15 14 14 15 15 16 16 17 19 19 17 15 13 12 11 11 10 9 10 11 11 12 13 13 12 11 10 10 10 9 9 9 8 7 7 7 6 5 5 7 9 9 8 10 11 9 8 8 8 8 7 6 8 10 8 7 10 8 6 8 8 5 4 3 5 7 6 8 9 8 10 8 4 5 7 5 4 4 3 2 2 2 2 1 1
17 16 15 14 14 15 15 15 16 17 17 19 19 15 11 10 10 10 8 8 9 8 11 13 12 12 12 12 12 11 10 10 10 10 10 8 7 7 7 6 5 5 5 6 8 8 9 11 9 8 10 8 6 7 7 6 7 9 10 9 6 5 7 7 7 6 4 6 7 5 7 8 8 10 9 7 9 10 9 6 4 2 2 2 2 2 1 1
17 16 15 14 14 15 15 16 16 16 17 17 14 11 9 9 8 8 7 8 8 8 12 13 11 10 11 12 12 10 10 11 11 10 10 9 9 7 6 7 6 5 3 4 8 7 7 11 10 7 9 9 6 7 9 6 5 8 9 7 6 8 9 7 7 8 6 6 6 5 4 5 6 8 10 10 11 12 11 8 5 5 5 2 2 2 1 1
17 17 16 14 15 15 15 16 15 16 18 16 12 10 9 9 8 7 7 7 8 10 12 12 10 10 10 10 11 9 9 11 10 9 9 9 9 7 6 6 6 5 4 4 7 7 6 10 11 8 7 8 8 9 9 9 7 6 7 6 6 7 8 7 6 6 7 6 6 6 5 7 7 7 10 12 12 12 12 10 9 9 8 4 3 2 1 1
16 18 16 14 15 16 16 16 15 15 16 13 10 10 9 9 9 7 6 7 8 10 11 10 10 11 10 9 9 9 9 9 9 9 9 8 8 8 6 5 6 6 5 5 6 6 6 8 10 9 7 7 9 9 9 10 8 7 8 7 7 6 5 6 5 4 6 7 6 5 6 9 8 6 9 12 12 11 10 10 9 9 8 6 3 2 2 1
15 18 17 14 15 15 16 16 12 10 11 10 9 9 9 9 10 8 6 6 7 8 9 9 10 10 10 9 9 9 9 9 9 9 9 8 9 9 7 5 5 5 6 7 7 6 7 8 9 9 9 9 10 7 5 7 7 7 9 8 8 7 6 7 6 3 3 5 5 5 6 9 8 8 10 11 11 11 9 8 9 9 8 7 4 2 1 1
16 18 16 14 15 15 16 14 8 6 9 10 9 9 9 9 10 9 8 7 8 9 9 9 9 9 9 9 9 8 9 10 9 9 9 8 8 9 6 4 4 4 6 7 6 5 6 6 7 9 9 9 8 5 3 4 5 6 7 6 6 6 7 8 8 5 3 3 3 3 4 7 9 8 10 10 9 8 7 5 7 8 7 6 4 2 0 0
17 17 16 15 15 15 15 13 9 8 9 8 8 8 8 9 9 9 9 8 9 10 10 9 9 9 9 9 8 9 9 10 9 9 9 8 7 7 6 4 4 4 5 6 6 5 5 6 7 9 9 7 6 4 3 3 4 6 6 4 4 6 6 6 6 5 5 4 3 3 3 7 8 6 6 7 5 5 5 3 4 5 5 4 3 2 0 -0
15 15 15 15 16 17 17 15 12 10 9 8 9 9 8 8 9 9 9 9 9 9 10 10 8 9 9 8 8 9 9 10 10 8 8 8 7 6 5 4 4 5 6 7 6 6 7 8 8 8 10 10 8 8 7 6 5 6 6 4 4 5 3 3 2 2 4 5 5 5 5 7 8 5 5 6 5 5 6 3 2 3 3 3 2 2 1 0
15 15 14 14 14 14 14 11 11 11 9 10 11 9 9 9 8 8 9 9 8 8 10 9 8 8 8 7 8 8 8 9 10 8 7 7 7 5 4 4 4 5 6 5 4 6 7 7 7 9 10 10 10 10 10 9 6 5 6 4 4 4 3 4 4 3 4 4 4 5 6 8 9 7 7 7 6 5 6 4 2 2 2 2 2 2 1 1
17 17 16 16 13 11 10 8 9 11 11 12 12 9 9 11 9 7 8 9 8 7 9 9 7 8 8 8 9 9 8 8 8 8 8 8 8 6 5 4 4 5 5 4 3 5 6 5 6 8 9 9 10 10 8 7 7 7 7 5 4 3 3 4 4 4 4 3 2 5 6 7 7 8 8 8 7 6 5 5 4 3 2 2 2 1 1 1
17 16 14 16 15 13 12 10 11 12 11 12 13 10 10 11 10 8 8 8 8 7 8 8 8 9 10 9 9 9 8 7 7 7 8 7 7 6 4 4 4 5 5 3 3 4 6 6 5 6 7 8 8 8 6 5 6 7 6 6 5 3 2 3 4 5 5 4 4 6 6 5 6 7 7 7 7 7 6 5 5 4 3 3 2 2 1 1
15 14 10 12 14 14 14 12 11 11 10 10 10 9 10 10 10 10 10 8 8 8 9 9 8 9 9 9 10 10 9 8 8 8 7 6 6 6 6 4 4 4 5 3 3 4 6 7 5 4 5 6 5 5 4 4 4 5 5 5 5 3 2 3 4 4 4 4 6 8 7 5 6 7 7 7 7 7 6 6 5 4 3 3 2 2 2 1
12 12 9 9 12 12 10 10 10 11 11 10 10 10 10 11 11 10 9 9 9 8 9 11 11 9 8 8 9 10 9 10 10 9 8 7 6 6 7 7 4 3 4 4 3 3 6 7 4 2 4 5 5 5 4 3 3 4 4 4 4 3 2 2 3 4 4 4 5 6 6 5 6 7 7 7 7 6 5 5 4 3 3 3 3 2 2 2
13 14 12 11 11 10 8 9 11 13 12 10 11 11 10 11 12 10 8 9 12 10 8 10 11 9 8 8 8 10 10 10 11 9 8 7 7 6 7 8 6 3 3 5 3 2 5 6 3 2 4 5 5 5 4 3 3 3 4 3 3 3 2 2 2 2 2 3 3 4 3 4 5 6 6 6 6 5 5 4 4 3 3 3 3 2 2 2
13 13 12 14 13 10 10 10 10 14 14 12 13 12 10 12 12 10 9 8 9 10 9 10 10 8 7 7 7 9 9 8 9 9 8 8 8 7 7 7 7 5 4 4 3 3 4 5 3 3 6 6 5 3 4 4 3 4 5 5 4 3 2 2 2 2 2 3 3 2 2 3 5 6 5 5 5 5 4 4 4 4 3 3 3 3 2 1
12 12 11 15 14 10 10 11 10 13 15 12 11 10 10 11 10 10 12 9 7 8 8 8 9 8 7 8 8 9 8 7 7 7 6 6 6 5 6 6 5 7 6 3 3 2 2 4 5 4 6 7 4 3 4 4 5 7 8 9 9 7 4 4 4 3 3 3 3 3 4 5 6 6 6 6 5 5 4 4 4 4 3 3 3 3 2 2
Height
815 814 814 813 813 812 812 812 812 812 811 811 811 810 810 810 810 810 810 810 809 809 809 809 809 809 809 809 809 808 809 809 809 809 810 812 812 811 810 809 808 807 806 805 804 803 804 804 805 805 805 807 809 809 808 809 810 812 821 828 831 834 836 837 838 839 842 854 862 862 861 860 867 871 872 876 880 884 885 887 892 891 892 895 895 894 892 890
815 814 814 813 813 812 812 812 812 811 811 811 811 810 810 810 810 810 810 810 810 810 810 809 809 808 809 809 809 808 809 808 808 809 811 813 812 811 810 808 808 807 806 805 804 804 804 805 806 805 806 808 810 810 808 810 809 815 826 829 832 838 844 845 842 842 846 857 866 868 869 866 870 875 874 882 893 891 887 893 894 893 896 897 896 895 893 891
815 814 814 813 813 813 812 812 811 811 811 810 810 810 810 810 810 810 810 810 810 810 810 809 809 808 809 809 809 809 809 809 809 812 813 812 812 811 809 808 808 807 806 805 805 804 805 806 806 806 808 810 811 811 810 810 812 819 824 827 838 844 847 849 846 847 852 858 864 870 873 874 878 878 879 888 896 898 897 900 899 898 902 900 899 897 895 893
815 814 814 813 813 812 812 811 811 810 810 810 809 809 809 809 809 809 810 810 809 810 810 810 809 809 809 809 809 810 809 810 814 814 814 812 812 811 809 808 808 807 806 805 805 805 805 805 806 807 809 811 813 813 811 812 813 822 828 832 842 843 846 853 854 854 858 859 863 870 871 876 884 882 885 885 885 900 907 905 904 903 904 903 901 900 897 895
815 814 814 813 813 812 812 811 810 810 809 809 808 808 807 808 808 808 809 808 809 809 809 810 810 809 809 809 810 809 810 817 818 815 814 813 812 811 809 808 807 807 806 805 805 804 804 805 806 808 810 812 814 813 813 815 816 828 842 844 844 843 848 859 860 859 862 862 864 871 872 878 888 890 893 886 885 904 909 906 907 905 904 904 903 901 899 897
814 814 813 813 812 812 811 810 810 809 809 808 807 807 806 806 807 807 807 807 808 809 809 809 809 809 809 809 810 809 813 821 819 814 814 813 811 810 808 808 807 807 806 805 805 804 805 806 807 809 811 813 816 816 816 820 818 827 846 850 848 847 851 860 862 864 866 864 867 873 878 885 888 895 902 896 899 909 908 908 907 906 906 904 903 901 900 900
815 814 813 813 812 811 810 810 809 808 808 807 806 805 805 805 805 806 806 807 808 808 809 809 809 809 809 809 810 811 815 820 818 815 815 812 811 809 808 808 806 806 805 805 804 804 806 806 808 810 812 814 817 820 822 825 823 829 847 855 856 856 858 865 868 870 868 869 875 878 882 888 886 894 904 904 907 909 907 909 907 907 907 904 904 902 901 902
815 814 813 812 811 811 810 809 809 808 807 806 805 804 804 804 804 805 806 807 808 808 808 808 809 809 809 809 810 813 817 819 817 816 814 812 811 809 808 807 806 806 805 805 804 804 806 806 809 810 813 816 816 821 824 825 829 837 851 858 861 864 868 870 872 873 872 876 880 880 887 894 892 895 905 909 910 910 909 909 909 908 907 905 904 904 904 903
815 814 813 812 811 810 810 809 808 807 807 806 805 804 803 803 803 804 806 807 807 808 808 808 808 808 810 809 809 815 819 818 816 816 814 812 810 809 808 807 806 805 804 805 804 804 806 808 810 809 812 816 817 820 822 823 831 843 853 860 864 870 873 871 873 875 875 880 878 883 896 899 896 897 906 912 910 910 911 909 910 909 907 907 906 905 905 904
814 814 813 812 811 810 809 808 807 807 806 805 805 804 803 802 803 804 806 807 807 808 808 807 808 809 810 809 811 818 820 817 816 815 812 810 809 808 808 806 806 806 805 806 805 806 806 808 809 809 810 814 819 823 824 824 835 848 855 863 866 870 874 871 874 876 876 881 877 883 898 899 895 896 904 912 912 911 912 911 911 909 908 908 907 907 906 905
814 813 813 812 811 810 809 808 807 806 805 805 804 804 803 802 803 804 806 807 808 808 808 808 808 809 809 809 815 821 819 816 816 814 811 809 808 808 808 807 807 806 806 807 807 807 807 808 808 809 810 814 822 829 833 833 841 850 852 862 871 871 874 875 875 875 875 882 881 881 890 895 896 898 906 910 911 912 912 912 912 910 910 909 909 908 907 907
814 813 813 812 811 810 809 808 807 806 806 805 804 804 804 804 804 806 807 808 809 808 809 809 809 810 809 811 818 821 818 816 816 813 811 809 808 809 808 808 808 807 808 808 808 808 808 809 806 810 813 816 826 833 841 843 843 849 848 859 874 871 871 875 874 873 874 879 882 876 875 889 903 904 909 911 910 914 912 912 912 911 911 910 910 909 908 908
814 813 813 812 811 810 809 809 808 807 806 806 805 805 805 805 806 807 808 808 809 809 810 809 809 809 809 815 820 820 818 818 816 813 811 809 809 810 809 809 809 809 809 808 809 809 808 809 807 812 816 819 828 832 840 846 843 848 850 857 869 867 867 873 872 872 874 876 880 875 865 885 910 909 909 911 911 913 912 912 912 911 911 910 910 909 909 908
814 813 813 812 812 811 811 810 809 808 807 807 806 806 807 807 807 808 808 809 810 810 810 810 810 809 811 818 820 818 819 817 815 813 810 810 810 810 810 811 810 810 810 810 810 809 809 810 808 813 819 824 830 832 840 846 845 850 852 856 863 862 867 875 875 873 872 873 879 875 863 882 908 908 909 910 911 911 911 912 911 911 911 910 911 910 909 909
814 814 813 813 813 812 812 811 810 810 808 808 808 808 808 808 809 809 809 810 810 811 811 810 810 810 814 819 819 819 818 815 814 814 812 812 811 811 812 811 811 811 811 811 811 811 811 810 811 820 826 828 831 834 841 844 847 853 851 853 861 862 867 873 877 877 872 872 878 870 862 885 903 904 908 908 909 911 909 911 911 911 911 910 911 909 909 909
814 814 813 813 813 812 812 812 811 811 810 810 809 810 810 810 810 810 811 811 810 811 810 811 811 810 816 821 819 818 818 816 816 816 814 814 812 813 812 812 813 812 812 813 812 812 811 812 820 829 830 833 837 837 842 845 848 853 850 850 858 860 864 869 873 881 879 871 873 870 866 886 899 900 906 906 907 910 909 911 910 909 910 909 910 909 909 908
814 814 814 813 813 813 813 812 812 812 812 811 811 812 811 811 811 811 812 811 812 812 811 813 812 811 817 822 821 821 820 820 819 817 816 815 814 814 812 813 814 813 813 812 812 813 814 819 828 834 836 844 848 840 840 847 848 850 853 857 864 865 863 865 866 876 882 871 873 880 878 889 899 900 906 905 907 909 908 909 909 909 909 909 909 908 908 907
815 814 814 813 813 813 813 813 813 812 813 812 812 813 812 813 812 812 813 812 812 811 811 813 812 816 825 825 826 827 824 822 821 818 817 816 816 814 814 814 814 814 814 815 817 819 822 827 832 834 840 847 851 845 839 845 846 845 850 854 862 867 864 867 870 878 884 876 880 886 885 898 905 903 905 906 908 908 907 908 908 908 908 908 908 907 907 906
815 814 814 813 813 813 813 814 813 813 813 813 813 813 813 813 812 813 814 814 817 819 823 825 822 828 835 831 830 829 824 823 822 819 818 817 816 816 815 816 817 816 819 822 824 829 830 833 838 841 849 854 857 858 849 847 848 847 853 854 855 862 870 877 881 886 887 881 888 890 887 902 907 904 906 905 908 908 906 908 907 907 907 907 907 906 906 905
815 814 813 813 813 813 813 814 814 814 813 813 814 814 815 816 818 823 823 822 827 832 833 834 832 834 836 833 831 827 825 824 822 821 819 818 817 816 817 819 820 822 830 833 833 835 837 843 856 861 865 867 866 867 863 860 860 856 858 861 862 866 874 883 884 890 890 880 891 901 899 905 906 904 907 905 908 909 907 907 906 906 906 905 906 905 905 904
814 813 813 813 812 813 813 813 814 813 813 814 814 815 817 818 822 828 830 831 835 834 833 835 834 834 834 834 832 829 828 825 822 822 821 820 818 817 823 825 823 829 841 844 841 840 840 850 866 870 871 872 871 870 865 862 863 860 859 862 869 872 876 885 884 888 891 880 890 907 903 903 905 903 905 906 907 906 904 905 904 904 904 903 904 903 903 903
814 813 813 812 812 812 812 813 813 813 813 814 814 816 817 817 819 821 824 832 837 835 835 835 834 835 835 834 833 831 830 829 825 824 823 822 819 821 830 833 833 841 847 845 842 845 850 858 867 871 873 872 870 870 862 859 862 863 864 862 865 875 879 883 886 891 893 883 891 906 899 897 903 902 903 905 905 903 901 902 900 900 902 902 902 901 901 901
813 813 812 812 812 812 812 813 813 813 813 814 814 816 817 817 819 819 819 829 837 837 836 836 836 837 835 834 834 832 832 837 837 832 829 826 827 832 837 841 844 849 853 848 843 847 853 861 869 873 873 867 864 870 864 857 862 865 864 862 865 878 877 871 881 894 896 889 893 904 901 896 899 899 899 901 901 900 899 899 899 898 898 897 897 897 898 898
813 812 812 811 811 811 812 812 813 814 814 814 815 816 818 818 819 820 822 830 837 838 838 838 838 839 838 837 837 835 837 843 843 840 836 833 835 838 841 847 849 853 863 861 854 855 859 867 874 872 872 867 858 865 866 856 862 869 865 864 868 875 875 873 882 891 894 895 899 902 890 882 893 900 896 896 900 899 896 897 897 896 895 894 894 894 894 894
813 812 812 811 811 812 812 812 813 814 814 815 816 816 818 819 820 820 822 832 839 839 838 838 839 839 840 840 838 839 840 842 845 844 841 839 840 840 844 848 849 856 865 863 859 862 867 873 874 867 868 868 856 861 873 865 860 865 865 867 867 868 874 880 885 883 877 878 893 897 870 858 883 898 892 892 896 895 894 894 892 892 893 892 892 890 890 890
812 811 811 811 811 812 812 813 814 814 815 816 817 818 818 819 821 820 823 836 844 845 842 839 841 841 841 842 841 840 841 843 845 845 842 842 842 841 845 850 853 857 863 862 861 865 870 874 874 869 867 867 861 864 877 873 860 859 866 870 869 870 873 877 880 876 868 871 891 898 874 860 868 873 883 894 894 892 891 890 887 887 888 888 887 886 885 886
812 811 811 811 811 812 812 813 814 815 815 816 817 818 819 820 821 820 826 841 849 849 846 842 843 843 843 845 843 841 846 848 845 844 845 843 843 842 844 852 854 858 866 863 860 866 870 870 871 871 866 865 864 865 874 877 863 859 871 876 874 873 873 875 876 873 877 884 894 897 887 879 866 862 886 898 889 889 889 884 883 881 882 881 880 881 880 881
812 811 810 810 811 811 812 812 813 815 814 816 818 818 820 821 821 821 831 848 854 850 850 847 844 844 846 847 846 847 851 852 847 847 848 845 845 844 847 858 861 862 869 861 856 870 874 870 871 870 867 867 868 869 875 877 866 866 880 883 880 878 877 880 879 876 885 884 880 889 892 884 867 865 893 900 886 885 880 874 873 871 873 875 873 875 874 875
812 811 810 810 811 811 812 812 813 814 814 816 818 819 821 820 821 826 838 853 855 851 852 850 845 848 851 849 850 854 853 854 855 853 851 849 848 848 853 864 865 864 868 862 860 872 875 873 876 873 872 872 870 874 877 874 869 874 883 883 881 883 882 885 882 875 882 878 868 880 887 879 862 853 876 891 879 868 863 863 865 863 865 867 867 868 868 870
813 811 810 811 811 811 812 813 814 814 815 817 818 820 821 821 827 836 846 854 855 855 855 852 852 857 857 852 853 859 857 858 862 858 854 855 852 854 860 863 862 862 865 866 867 873 876 876 878 876 876 877 874 876 879 878 877 879 879 875 876 881 881 884 888 880 879 876 869 876 883 881 868 849 854 866 856 845 845 849 853 855 859 861 860 862 863 864
814 812 811 811 812 812 812 814 814 815 816 817 819 820 821 828 839 845 851 857 858 858 858 857 861 863 863 861 860 863 862 862 866 862 859 863 861 862 864 863 862 860 860 866 869 871 874 872 875 878 878 880 875 872 878 882 884 880 872 868 868 873 876 875 880 881 874 867 869 880 886 885 875 851 843 850 850 849 848 840 837 842 850 856 856 857 858 859
815 813 812 811 812 812 812 814 815 816 817 818 820 821 825 837 845 850 857 859 859 861 864 865 866 866 867 868 867 869 867 866 871 872 873 876 876 879 879 878 877 865 860 870 871 868 871 871 876 878 878 881 873 865 869 872 874 870 864 864 861 865 872 865 867 880 877 869 876 886 884 881 873 849 838 842 842 846 851 846 840 841 845 851 853 854 854 856
816 815 814 813 813 812 813 814 815 817 818 819 820 823 831 838 847 862 867 860 861 869 871 870 870 871 869 865 868 872 871 870 873 876 880 881 881 887 890 893 893 877 868 876 874 866 866 870 874 872 872 878 874 867 863 864 869 867 865 866 860 864 875 870 877 893 884 872 883 894 887 873 857 840 834 834 833 840 850 852 850 849 848 848 850 852 852 853
817 816 815 814 814 814 815 816 817 818 819 820 822 828 835 841 855 871 869 864 871 874 873 875 872 869 868 867 872 875 870 872 876 876 877 877 878 883 884 888 893 887 879 879 880 876 867 865 870 871 872 875 877 877 875 873 876 878 882 878 864 868 874 869 873 877 873 877 889 894 881 857 838 832 833 836 842 850 852 852 854 852 851 850 850 851 850 850
818 817 817 816 816 816 817 818 818 819 819 820 826 833 838 849 865 870 865 870 876 872 873 879 872 864 867 871 876 878 872 871 877 878 878 880 883 887 888 888 892 893 882 874 882 890 879 870 874 878 879 878 877 882 885 879 875 884 892 878 867 874 876 880 891 892 893 898 891 883 869 850 839 833 840 850 850 850 849 849 851 848 848 851 849 848 848 847
819 818 817 818 818 819 818 819 820 820 821 822 829 841 852 862 869 869 870 875 876 873 871 872 868 864 865 869 873 876 875 873 877 878 880 888 892 892 893 893 896 896 887 879 885 889 878 871 878 880 879 880 879 881 885 878 870 880 883 871 878 891 882 883 899 911 916 900 881 878 863 848 844 830 833 850 842 836 844 844 845 844 845 849 846 843 844 843
819 819 820 820 820 820 820 821 821 820 822 824 833 853 870 875 874 875 879 878 878 879 870 863 868 869 867 868 870 873 874 874 876 875 878 887 889 890 894 894 895 896 895 891 888 889 883 870 875 882 874 877 885 882 883 885 879 874 870 872 887 894 887 887 887 894 909 898 880 880 866 851 851 833 826 837 829 821 829 835 842 845 845 847 843 840 840 839
820 820 821 822 823 822 822 821 822 822 824 834 851 868 877 877 877 880 881 879 879 878 869 863 871 876 875 871 871 877 877 871 873 877 879 883 883 888 894 891 892 896 899 896 886 893 894 870 870 885 878 877 885 880 876 883 886 878 873 880 885 877 878 891 890 881 891 895 881 880 882 870 859 841 824 820 817 814 817 826 835 836 836 841 839 836 837 836
820 821 824 826 825 824 823 822 824 824 825 841 862 872 874 877 879 880 880 880 879 874 869 870 875 878 879 877 875 882 881 874 878 882 880 880 882 887 893 892 892 894 898 897 888 893 897 876 867 880 884 881 880 878 874 875 883 885 881 885 887 882 881 889 895 888 883 888 883 878 873 852 840 837 820 806 810 811 812 819 823 822 825 831 833 832 833 833
820 822 827 828 825 825 826 822 825 830 836 853 869 872 874 877 877 880 881 880 878 874 872 875 877 874 877 882 882 883 884 881 883 883 881 884 883 884 893 895 892 893 895 896 892 893 897 886 872 874 885 884 874 874 874 869 876 882 879 882 885 890 897 893 896 900 888 883 887 886 864 827 820 832 817 804 808 809 811 815 815 817 819 824 829 829 828 828
820 823 827 828 826 826 825 826 840 853 858 866 872 873 876 875 873 879 882 882 880 877 876 877 877 875 876 881 882 883 885 882 884 884 883 885 882 880 889 894 893 894 892 889 890 891 891 888 880 876 877 872 867 878 884 878 880 879 874 877 878 882 891 886 887 902 904 893 887 889 866 821 810 821 812 805 809 808 813 816 812 814 815 818 824 824 824 825
822 827 830 828 826 824 825 839 861 869 865 868 871 872 874 873 873 877 879 881 879 876 877 878 878 881 880 880 882 885 883 879 882 884 882 884 884 881 888 895 895 895 891 888 892 894 893 892 888 878 872 871 874 886 891 887 887 885 880 884 886 885 882 874 873 886 902 904 900 903 882 826 804 815 809 806 813 813 817 820 815 814 814 816 820 820 822 822
826 829 830 828 827 825 829 847 867 871 869 873 875 875 876 874 874 876 877 878 877 875 875 877 879 880 880 882 884 884 882 878 879 882 883 886 886 884 890 895 895 895 893 889 891 894 894 891 886 875 869 874 882 888 892 891 889 884 883 889 889 884 880 879 882 886 889 889 890 899 879 823 803 820 817 814 821 820 820 823 820 816 816 817 818 818 820 819
831 831 830 828 825 824 829 843 858 868 873 874 873 873 876 876 875 875 875 875 877 876 874 876 881 879 880 885 883 882 883 877 875 882 885 885 885 887 892 894 894 893 890 887 887 888 885 884 885 878 867 864 867 872 875 880 885 881 879 886 885 884 891 895 899 901 889 873 872 876 854 812 803 820 819 816 821 816 815 820 821 819 817 816 817 816 816 816
830 831 833 831 827 828 838 849 854 862 870 869 869 874 874 874 878 878 877 877 880 880 875 877 882 880 883 886 882 884 886 878 876 883 886 886 887 889 892 893 894 892 889 891 892 888 884 885 884 877 871 867 861 856 856 863 878 881 879 883 883 884 889 884 886 894 884 874 874 861 830 802 800 810 809 810 816 815 813 816 818 819 816 815 815 813 812 813
829 831 834 835 835 838 850 859 856 856 864 863 865 875 875 871 877 880 878 877 880 882 878 878 882 881 881 883 880 881 884 884 884 884 883 883 882 887 891 891 893 892 890 893 895 892 891 893 888 877 870 868 859 855 863 870 872 871 870 876 880 884 886 883 886 884 874 877 876 850 826 814 807 806 805 804 807 809 809 809 811 814 813 812 812 810 810 810
829 836 842 839 840 845 851 858 858 856 861 860 861 872 874 871 876 878 877 878 880 881 879 879 882 878 876 879 879 878 882 886 887 884 883 883 883 887 891 891 892 891 890 894 895 894 890 885 887 885 876 870 865 864 875 880 873 867 868 868 871 880 887 887 881 865 860 870 856 829 831 834 815 803 803 803 802 803 804 805 805 807 807 807 807 807 807 806
833 842 851 845 843 849 851 854 859 860 863 865 868 873 873 872 874 872 873 878 880 879 876 876 879 878 877 879 876 876 881 882 880 882 884 886 887 886 886 890 892 889 890 895 895 895 889 879 885 892 882 876 879 877 880 884 878 874 872 867 866 876 883 880 867 855 859 859 831 809 821 828 811 798 797 798 799 799 800 801 802 803 804 804 804 804 803 803
839 843 851 849 848 856 860 861 863 861 862 866 869 871 870 868 869 872 877 877 875 879 877 870 871 877 880 882 878 876 877 873 870 876 881 883 887 885 880 881 888 892 892 891 894 896 887 878 890 898 885 878 879 878 880 884 880 874 871 868 867 870 874 871 860 853 855 851 832 820 824 821 805 796 793 792 795 798 800 800 800 801 800 800 801 800 799 800
835 836 844 848 853 862 865 865 861 856 861 866 863 866 871 867 865 873 878 874 867 874 879 871 869 877 881 882 880 874 872 869 867 872 879 880 882 885 879 873 880 892 893 888 894 897 886 881 894 897 882 871 873 876 878 882 882 874 865 861 863 866 869 869 864 858 857 852 840 835 837 825 803 793 795 796 795 798 799 797 796 796 796 797 798 797 797 797
830 832 835 839 850 863 862 863 864 855 855 861 859 864 870 865 865 869 872 874 871 870 875 872 870 878 883 884 881 874 872 874 871 871 876 876 875 878 877 873 877 885 888 890 893 892 889 887 892 894 878 863 871 880 875 874 877 868 852 843 845 855 859 855 850 848 847 842 838 843 844 822 796 791 797 797 795 797 796 794 794 792 792 795 794 792 793 793
830 833 834 833 847 863 862 862 864 855 851 859 861 865 867 864 869 870 864 872 878 874 875 876 873 877 880 878 877 873 873 877 875 874 877 877 877 878 877 878 879 877 882 891 893 896 898 886 883 891 876 860 874 884 873 871 865 841 821 814 814 825 837 837 834 833 833 834 835 833 820 798 788 793 795 791 792 794 793 791 790 788 789 791 790 788 788 788
Wind_Speed
5 5 5 4 4 3 3 3 3 4 4 5 5 5 6 7 7 8 8 8 7 6 6 6 6 6 7 5 8 12 12 11 11 16 13 9 14 15 14 11 9 9 10 7 5 5 3 4 5 5 5 3 1 1 1 1 2 3 2 3 1 3 2 2 3 5 6 6 1 5 5 10 9 3 4 7 15 11 12 13 10 15 17 16 16 18 23 24
5 5 5 5 4 4 4 4 4 5 5 6 7 7 8 8 8 8 8 8 7 7 6 6 6 6 6 4 9 11 9 8 12 16 12 12 15 16 14 11 9 9 9 7 6 6 4 3 5 6 4 1 2 2 1 0 2 3 3 3 2 3 2 4 1 4 6 8 7 7 7 8 5 3 4 6 8 9 12 10 9 13 13 15 19 21 25 26
5 5 5 5 5 5 5 5 6 6 6 7 7 8 9 9 9 9 8 8 7 6 5 5 4 5 5 2 7 8 4 5 9 9 12 14 15 15 14 10 8 8 9 7 6 5 3 1 3 4 4 1 2 2 1 1 1 2 3 4 2 5 3 6 4 7 7 11 12 8 7 11 8 5 4 9 9 10 9 5 7 9 7 9 13 18 23 26
5 5 5 5 5 6 6 6 7 7 7 7 7 8 8 9 9 8 8 7 6 5 3 3 2 3 4 2 6 7 2 6 4 7 13 14 15 16 13 9 7 7 8 6 4 2 1 1 3 4 4 0 3 2 1 2 0 2 3 2 4 5 5 8 6 10 8 9 12 8 9 12 7 8 4 6 10 8 5 4 5 5 4 5 8 14 19 23
5 5 6 6 6 6 6 6 6 6 7 8 8 8 8 8 8 7 7 6 5 3 1 1 0 1 2 4 7 6 2 4 4 10 14 14 16 16 12 8 7 7 7 5 2 2 2 3 5 5 4 1 3 2 1 2 3 5 4 1 2 4 6 4 4 8 6 8 11 8 10 7 3 9 8 5 9 2 1 3 4 4 4 5 7 12 18 21
6 6 6 5 5 5 5 5 5 6 7 7 7 8 9 8 8 6 5 5 3 1 1 1 2 1 2 6 7 4 5 2 7 13 15 15 17 16 10 7 7 7 6 1 1 3 4 4 5 3 3 2 1 1 2 4 5 5 4 5 5 4 8 5 4 6 5 9 10 6 8 6 8 11 8 10 10 3 3 4 5 6 6 8 10 13 16 17
6 6 6 6 5 4 4 4 6 7 6 5 5 5 7 8 9 7 6 4 2 1 1 2 2 3 7 10 9 7 6 1 10 14 15 17 16 15 9 6 6 6 3 0 2 4 4 6 5 4 4 2 1 2 4 6 7 8 3 5 8 9 10 8 7 8 10 15 10 8 10 6 10 9 4 10 9 3 6 6 8 9 9 12 13 14 15 15
7 8 8 7 6 5 5 6 8 8 6 5 4 4 4 5 8 9 7 4 3 2 2 2 2 6 11 9 8 7 4 2 11 15 17 17 14 12 7 4 5 2 3 6 3 4 4 5 3 3 4 2 2 3 3 7 8 7 4 3 7 9 11 11 11 13 15 15 12 16 15 9 11 10 5 7 5 3 5 6 8 9 10 11 12 12 13 14
9 10 10 9 8 7 6 9 10 8 7 6 5 4 4 2 6 10 8 5 3 2 2 2 3 8 9 4 5 5 2 6 11 15 18 18 12 9 6 6 6 5 8 10 6 4 3 2 3 3 4 2 4 3 1 5 4 4 7 7 10 10 9 12 11 12 13 8 12 20 14 9 10 8 6 4 2 3 4 5 5 6 8 8 9 10 11 12
9 10 11 11 9 8 8 10 11 9 8 7 5 4 4 1 5 9 9 6 5 4 4 5 7 7 6 3 6 5 6 10 12 15 20 18 8 6 8 9 8 7 8 9 10 7 3 3 3 3 5 3 4 3 4 5 6 9 14 11 12 11 5 7 10 9 9 3 8 17 9 3 3 3 4 2 3 3 3 5 4 5 7 5 7 9 11 11
9 10 11 12 11 10 10 12 12 10 8 7 6 6 5 4 7 10 10 11 11 12 14 16 17 16 16 12 7 4 9 13 13 17 20 14 5 6 10 10 9 9 7 8 9 7 4 2 4 4 3 3 4 6 7 9 14 15 17 14 10 11 7 6 8 6 5 3 6 15 11 4 6 3 4 4 4 3 3 5 4 5 5 4 6 7 9 10
9 10 11 12 12 10 11 12 11 11 9 8 8 8 8 8 10 11 12 14 14 16 16 17 14 12 18 15 5 3 11 12 13 19 18 10 6 6 10 9 9 10 7 7 7 5 4 1 6 6 1 4 5 5 5 8 14 12 11 13 6 7 6 2 3 3 3 4 6 6 7 4 7 3 4 4 5 4 4 5 4 4 4 4 4 5 7 8
9 10 11 12 12 10 10 11 10 11 10 9 9 10 11 11 12 12 13 13 12 9 8 6 2 1 7 7 2 8 12 11 15 18 15 9 6 6 8 7 8 10 8 8 8 7 6 5 12 8 2 6 3 4 7 5 8 5 5 9 6 3 4 4 1 1 4 3 7 1 2 2 2 2 4 4 5 5 5 5 3 3 3 3 3 3 5 7
8 9 9 11 11 9 9 9 10 11 11 11 11 12 13 13 13 13 12 12 11 8 7 6 5 5 6 3 1 12 15 12 18 21 17 10 5 6 8 7 8 10 10 10 11 11 10 12 17 9 3 6 4 7 10 3 4 4 4 4 3 3 1 4 4 1 3 1 2 3 2 3 5 5 5 6 5 5 6 4 4 3 3 3 3 3 3 5
8 8 8 9 9 7 7 9 12 13 13 13 12 13 14 14 14 12 12 11 10 9 8 7 6 7 6 2 0 12 17 17 23 24 18 12 8 7 7 8 9 11 12 12 12 12 13 14 14 6 2 4 5 8 6 2 4 4 4 0 2 4 3 1 4 4 2 2 3 4 2 2 5 7 7 7 5 4 6 5 4 4 3 3 3 3 3 4
7 8 7 7 7 6 5 9 13 16 17 16 15 15 16 17 16 16 14 11 8 6 6 6 5 7 6 1 5 12 15 17 22 21 16 13 11 8 6 8 9 11 13 14 13 11 16 15 8 3 3 5 5 6 4 4 2 3 3 3 1 4 3 1 2 5 3 2 5 5 3 1 3 6 7 6 6 5 5 5 5 4 4 4 3 3 3 4
7 7 7 7 6 5 6 9 14 18 20 20 19 15 14 13 11 12 12 12 11 9 9 10 6 7 5 5 6 8 11 15 19 20 17 14 15 11 8 7 5 7 8 13 17 12 12 10 3 2 5 5 3 5 4 2 2 2 3 3 1 3 4 1 1 4 8 2 3 6 4 2 1 5 6 5 6 6 6 6 5 5 5 4 4 4 4 4
6 6 6 5 5 4 6 9 13 17 20 22 22 21 21 20 16 14 11 9 6 6 10 13 8 5 4 8 6 8 13 15 17 20 16 11 14 15 14 9 4 5 5 8 13 10 6 5 3 3 4 5 5 5 4 4 4 4 2 3 2 2 3 2 1 4 8 6 5 6 4 2 1 4 5 5 5 6 6 6 5 5 5 5 5 4 5 5
5 5 5 4 4 4 6 9 12 15 16 17 17 17 18 19 22 23 24 18 7 3 3 7 5 4 2 6 8 12 12 11 14 19 20 13 8 11 15 13 6 7 6 3 6 7 4 4 6 4 4 5 4 2 3 4 5 6 3 4 5 3 2 1 0 2 3 7 6 4 3 3 4 5 5 5 5 5 5 5 5 5 5 5 5 5 6 5
4 4 4 4 3 3 6 10 13 13 11 10 6 5 5 7 11 11 16 17 7 3 5 1 2 4 1 4 10 14 8 7 13 19 26 19 8 7 11 10 8 8 6 2 3 5 4 6 5 2 4 6 7 5 2 1 5 7 5 5 4 4 2 1 1 2 2 5 4 3 3 5 6 6 6 5 4 5 6 6 6 6 6 6 6 6 7 6
4 4 4 4 3 2 6 12 14 12 8 5 3 2 2 2 5 1 2 7 4 6 9 3 3 4 2 3 12 14 3 6 14 21 29 20 6 5 7 7 7 7 5 2 2 4 6 7 4 5 6 6 6 2 4 5 6 7 6 6 4 3 1 1 1 3 5 4 2 2 4 4 6 6 6 5 5 7 7 8 8 8 7 6 7 8 8 6
5 5 5 4 3 1 7 12 13 12 9 7 4 2 3 5 10 9 5 5 4 7 8 6 6 4 3 4 13 13 3 8 13 18 28 21 8 5 4 6 7 3 5 4 2 5 7 5 5 7 4 2 5 5 7 8 7 6 4 5 3 2 1 1 1 5 5 2 1 1 2 4 6 5 6 7 7 7 7 9 9 9 9 8 8 9 8 7
6 6 4 4 2 2 6 9 10 9 6 5 5 7 9 13 15 10 7 6 2 5 5 6 6 5 6 7 15 14 8 7 5 11 24 18 6 5 3 6 8 4 7 6 4 4 4 2 6 5 3 2 6 8 7 8 6 4 4 4 2 1 2 1 1 3 4 2 3 4 1 4 5 4 6 8 8 6 6 9 9 8 10 10 11 9 9 10
7 6 3 3 2 5 6 7 8 6 4 6 10 14 15 16 13 7 5 5 2 2 2 1 3 3 4 5 13 9 5 4 1 8 20 12 3 3 4 5 7 6 5 6 8 8 4 3 4 5 5 4 6 7 7 6 4 3 2 5 3 2 2 2 2 2 3 4 4 5 1 4 4 5 8 5 6 8 6 8 9 9 9 9 9 10 10 11
9 5 2 1 4 7 7 6 7 8 8 9 14 17 15 13 10 5 4 4 3 2 3 1 1 4 3 6 13 4 4 4 2 5 14 10 3 2 3 2 5 3 2 3 9 8 3 4 3 5 6 6 7 6 5 3 3 3 1 5 5 4 4 4 3 3 3 3 1 3 2 5 2 5 9 4 5 10 7 8 12 11 10 9 9 10 11 11
10 5 1 2 6 10 7 4 7 10 8 8 13 15 13 12 8 2 3 5 3 3 5 3 2 7 6 8 11 2 4 4 1 7 14 11 4 2 3 2 3 2 4 3 5 3 2 5 4 5 5 8 8 5 3 3 5 2 1 4 5 5 6 6 4 3 1 1 1 2 2 3 4 3 6 4 7 10 8 10 13 11 10 11 11 11 10 11
11 6 2 3 7 12 6 2 10 10 4 6 13 14 13 11 5 1 3 5 4 3 3 3 3 7 6 7 9 2 2 6 4 10 16 13 7 2 5 3 2 2 2 3 4 1 2 6 7 6 6 7 7 4 2 4 5 1 1 2 4 5 6 6 5 3 2 1 2 2 3 1 5 4 3 2 6 9 10 13 14 12 12 13 13 12 12 12
12 7 2 3 6 10 6 5 13 8 3 11 14 12 12 9 3 2 5 4 3 1 1 3 3 5 5 8 11 6 1 5 2 7 13 13 10 4 6 3 2 1 2 4 3 2 1 5 7 6 6 5 3 1 2 4 3 2 1 1 2 5 5 5 5 2 1 2 2 3 2 0 5 5 3 1 3 8 11 15 15 14 14 15 14 14 14 13
13 8 2 4 6 8 6 7 10 6 9 16 13 11 11 6 1 4 6 2 1 2 0 2 3 5 6 7 8 5 3 3 3 5 10 11 11 7 5 1 5 5 4 5 5 2 0 1 1 4 4 2 2 5 4 4 1 2 3 3 4 5 4 4 4 2 3 2 3 5 4 1 5 5 2 1 2 7 11 12 13 13 13 14 15 15 14 12
16 11 4 6 7 8 8 7 7 10 13 15 12 12 9 2 4 5 2 1 1 1 1 2 3 4 6 7 6 6 6 4 3 5 6 5 8 9 4 1 4 6 6 7 5 0 2 2 2 4 2 2 4 4 4 4 1 2 4 4 6 5 4 4 2 3 4 2 5 5 5 4 3 6 3 3 5 7 7 7 8 9 10 12 14 13 13 12
19 16 8 5 6 7 6 5 9 12 12 14 15 12 6 3 5 6 1 2 1 2 3 3 2 4 6 5 4 5 5 5 6 6 6 5 7 8 5 2 3 5 5 6 5 4 5 5 1 1 1 0 1 2 1 1 2 4 3 3 3 3 3 3 4 4 2 4 6 3 3 4 2 6 5 5 7 7 7 7 8 8 9 10 11 11 12 12
19 19 14 7 5 6 6 7 11 12 12 16 14 7 5 2 3 2 1 3 2 2 2 1 3 4 4 3 4 4 3 4 5 5 4 3 4 5 4 2 1 3 3 2 3 5 4 2 3 4 2 2 3 1 2 4 4 5 4 4 3 2 3 2 3 1 3 5 3 1 1 1 5 9 9 9 10 10 9 9 8 8 8 8 9 10 10 9
18 18 17 13 10 9 10 12 13 13 14 15 8 5 7 4 0 1 3 2 1 1 0 0 3 2 2 4 4 4 3 2 4 4 2 2 4 3 3 2 1 2 1 1 1 3 3 4 5 4 2 2 4 3 1 3 5 4 3 4 3 2 3 2 3 2 4 5 3 2 2 3 5 6 9 11 10 9 7 8 8 8 8 8 8 8 8 9
18 19 18 16 14 12 12 13 14 15 13 8 5 4 5 2 2 1 2 2 1 2 1 1 3 3 3 4 2 3 2 2 3 4 3 3 4 3 4 4 4 3 2 2 1 1 1 3 3 2 1 2 4 3 4 2 2 2 2 4 3 4 3 3 4 3 4 4 4 3 1 3 3 3 6 8 6 5 5 6 6 7 8 6 6 6 7 9
15 19 20 18 14 12 10 11 12 11 7 5 7 5 3 2 3 1 1 3 1 2 2 1 3 4 3 3 3 2 1 1 3 4 4 3 2 1 2 4 4 3 3 2 1 1 2 3 5 3 2 2 2 0 3 4 2 1 1 3 1 3 4 2 3 5 2 2 4 2 3 5 4 5 5 2 5 6 5 5 5 7 8 4 5 7 7 8
11 17 21 20 14 9 8 9 8 5 4 6 7 4 2 4 2 2 2 1 0 0 1 2 3 4 3 4 3 3 2 1 3 3 3 2 2 1 1 2 2 2 3 2 1 1 2 3 4 3 3 1 2 2 1 2 1 0 1 1 2 3 5 4 1 0 3 1 4 2 4 5 4 6 5 3 5 7 5 6 7 8 7 4 7 8 8 8
5 10 16 20 17 7 5 6 5 4 5 7 6 2 2 3 2 2 2 1 0 2 3 1 1 2 1 2 3 4 4 2 2 3 1 0 1 1 1 2 1 1 2 3 2 2 3 2 4 1 1 2 2 3 1 1 2 1 1 3 2 1 3 4 0 3 3 2 4 1 5 5 2 4 6 5 5 9 8 7 7 8 7 7 10 10 9 9
1 4 9 19 17 7 4 5 4 5 6 7 5 3 1 1 1 2 2 2 1 2 4 2 1 0 1 0 2 4 4 2 2 3 1 0 0 2 1 2 1 1 1 2 1 1 3 1 5 1 2 4 2 3 2 3 2 1 2 3 2 1 0 1 1 1 0 3 5 4 5 5 4 5 5 5 8 9 9 7 6 8 9 9 11 11 11 9
1 3 4 15 15 6 5 5 4 7 7 5 3 2 1 1 1 2 3 2 1 3 3 2 1 1 2 2 1 3 3 1 1 2 1 0 0 2 2 1 1 0 1 2 3 1 2 2 4 3 1 3 4 2 2 2 2 2 1 2 2 3 4 2 2 3 3 2 4 4 5 4 7 7 7 10 11 9 9 7 7 10 10 9 10 10 10 9
2 3 2 14 13 3 4 7 7 8 6 4 3 2 1 1 1 2 2 0 1 2 1 2 2 2 1 1 1 1 2 1 1 1 1 1 0 1 2 2 1 1 1 2 3 0 2 3 3 5 3 2 1 2 5 5 3 1 1 1 1 1 1 1 0 2 4 2 3 2 5 7 6 5 8 11 10 9 10 8 8 9 9 9 9 9 9 9
4 3 3 15 11 2 3 10 9 5 4 3 2 2 1 1 1 2 2 1 0 1 1 4 3 2 2 1 0 1 0 1 1 1 1 1 1 1 2 4 4 1 0 3 2 0 1 2 3 3 3 2 4 4 4 5 5 4 3 3 3 2 2 0 3 2 2 2 4 3 6 11 5 5 8 10 9 9 9 8 8 9 9 9 9 9 10 9
6 3 4 14 7 5 7 8 3 2 4 2 1 2 1 1 2 1 2 2 1 0 2 3 3 2 2 2 1 1 1 0 0 1 1 2 3 3 3 5 5 2 2 2 1 2 2 3 1 3 4 5 5 4 1 4 4 4 3 3 3 3 5 4 4 4 1 1 2 3 3 10 5 6 7 7 7 7 6 7 8 8 8 8 8 9 9 9
3 3 5 12 2 6 11 6 2 4 4 0 1 1 1 2 2 1 1 2 1 1 3 2 1 1 1 1 1 2 1 1 2 2 2 2 3 4 5 6 5 2 3 1 2 1 1 3 1 4 5 3 4 4 2 1 2 1 2 2 4 3 3 5 5 3 2 3 2 1 5 9 4 2 4 4 4 6 6 6 8 8 7 7 8 8 8 9
2 3 5 13 4 4 5 4 2 3 1 1 3 2 2 1 2 2 1 1 1 1 2 1 1 0 1 1 2 2 2 1 1 1 2 3 3 2 4 6 5 2 2 2 2 2 1 0 2 2 6 6 6 5 4 3 0 3 4 2 3 4 5 3 2 2 2 6 7 4 9 10 5 1 3 4 4 6 8 7 7 7 8 7 7 7 7 8
3 1 3 13 14 8 4 4 6 5 3 3 4 2 2 2 1 0 1 1 0 2 2 0 1 1 2 2 2 1 1 0 1 1 1 1 3 1 2 5 6 3 3 3 2 2 2 2 3 2 2 4 4 4 4 3 1 2 2 3 5 5 7 3 1 2 4 6 8 7 10 12 7 5 6 7 6 7 10 9 7 7 8 8 7 7 8 7
2 2 2 7 11 9 3 0 5 6 4 5 4 1 1 2 1 1 2 1 1 2 2 1 1 2 2 1 1 1 2 1 0 0 1 3 3 2 2 5 5 3 3 3 2 3 2 1 3 6 7 7 7 8 4 2 1 4 5 5 6 7 7 5 3 3 6 3 5 10 14 16 17 15 14 13 11 10 10 9 8 7 7 8 8 8 8 7
2 2 1 1 3 4 5 4 4 4 3 4 3 1 2 2 1 1 1 1 1 1 1 1 1 1 1 2 1 1 2 1 0 1 2 4 3 3 1 4 3 4 4 3 1 4 4 3 4 7 9 10 10 10 4 0 5 8 8 9 8 8 7 7 8 10 5 3 9 16 13 13 20 20 17 15 14 12 10 10 8 7 7 7 7 7 8 8
2 3 2 1 2 2 3 2 3 5 4 3 3 2 2 2 1 1 1 0 1 1 1 1 1 1 4 4 3 1 1 1 1 2 2 2 2 3 2 1 3 3 4 2 1 4 4 4 4 5 7 10 10 10 7 4 8 9 10 13 12 9 10 13 19 17 8 7 18 18 11 12 18 20 18 15 14 12 10 9 8 7 7 7 7 8 8 8
3 3 0 3 3 3 2 2 5 6 5 3 3 2 3 4 4 3 1 1 2 2 1 1 4 4 4 4 3 2 3 1 2 4 2 2 2 0 1 2 2 1 3 3 1 2 4 4 3 1 5 9 9 11 9 5 7 10 12 15 13 12 14 17 20 19 14 16 21 21 19 19 19 21 20 17 13 10 8 9 9 9 9 7 8 8 8 9
2 4 1 3 4 2 2 3 4 5 3 3 2 1 3 6 5 3 1 2 1 2 1 2 5 4 4 4 4 4 7 6 4 5 4 3 3 2 3 3 2 1 1 2 1 1 2 3 0 3 4 8 6 5 5 3 6 11 15 16 14 12 13 15 16 16 14 16 21 21 19 19 20 19 17 15 13 10 9 11 11 10 8 7 8 8 8 9
4 4 5 7 4 2 2 2 3 4 2 1 2 3 3 5 6 4 1 2 4 4 4 4 4 3 3 3 5 7 8 7 7 8 7 6 4 4 3 2 4 4 2 2 1 1 2 3 2 5 3 7 2 5 6 6 6 11 18 20 16 11 10 11 12 11 11 14 16 13 11 15 17 12 8 9 10 9 10 11 10 9 8 7 9 9 8 9
7 5 4 7 4 2 1 2 2 3 2 1 3 3 3 5 6 4 2 1 2 3 5 6 5 3 2 4 8 9 7 7 7 7 6 5 3 3 3 3 4 6 5 4 1 1 3 2 1 2 2 6 3 4 6 7 8 11 13 13 12 10 10 9 10 11 13 12 8 8 11 15 11 7 7 9 8 7 9 9 9 9 8 8 9 9 9 10
Wind_Direction
12 12 9 6 1 358 349 336 325 310 303 292 286 280 275 271 274 280 289 299 301 309 319 327 328 341 11 63 113 113 104 97 74 53 48 18 0 358 352 342 342 349 349 353 7 16 32 55 32 33 100 135 21 278 197 168 99 73 107 108 207 192 130 278 192 165 124 126 128 12 35 106 112 53 76 47 34 48 62 55 54 56 54 53 57 67 77 87
0 355 349 347 341 335 330 324 315 307 297 288 283 273 268 264 266 270 275 282 286 295 313 323 326 334 1 70 131 124 107 82 60 49 32 5 3 359 346 339 341 348 354 3 19 31 46 24 3 31 76 89 339 342 351 232 101 97 125 90 245 196 61 322 200 133 108 125 116 63 48 67 67 337 40 65 27 32 60 40 36 54 42 42 49 61 73 80
348 343 338 336 332 326 322 316 310 303 294 286 278 270 265 262 263 264 267 272 281 292 313 326 327 336 357 75 150 146 127 56 49 27 6 1 1 356 346 332 329 346 355 357 6 32 72 25 5 46 66 65 311 350 2 323 89 131 113 82 206 173 67 8 66 98 115 130 111 86 72 58 28 360 67 100 74 39 53 29 27 54 34 32 40 55 69 74
343 340 336 334 330 326 321 316 314 307 302 293 281 273 263 260 259 257 265 268 276 288 305 321 324 335 357 111 159 167 148 47 29 338 354 358 355 355 345 323 320 340 346 345 350 22 59 70 63 64 78 64 323 355 222 285 15 95 73 127 182 152 80 25 64 97 104 113 104 110 89 71 40 32 51 120 87 42 36 21 25 61 47 45 47 58 69 73
347 342 336 335 328 325 320 313 314 309 306 298 286 278 266 262 257 254 259 257 264 268 271 343 78 1 45 137 158 167 100 45 331 341 356 353 352 351 342 324 317 330 339 343 349 58 79 93 75 55 74 102 348 18 240 322 68 77 29 85 148 127 106 51 59 85 93 101 94 94 78 85 90 40 22 80 97 85 23 22 32 59 52 65 68 70 72 72
356 352 347 344 335 323 316 312 315 315 309 298 283 272 264 258 253 250 246 245 252 239 224 159 143 111 126 142 150 143 99 81 322 348 352 346 350 348 344 324 318 332 333 324 98 98 91 75 72 68 68 67 78 54 324 352 56 94 21 12 30 65 109 98 57 64 84 90 76 81 89 104 99 63 26 63 88 111 86 66 67 70 73 84 81 77 74 72
12 9 8 1 348 334 329 329 332 336 335 323 304 282 264 250 242 235 229 231 223 191 186 149 134 131 132 123 113 89 90 60 337 351 347 344 348 348 349 328 331 333 309 145 88 114 96 64 88 128 90 84 157 71 41 27 49 90 75 28 42 57 84 83 76 78 79 82 79 94 91 70 86 89 43 62 76 77 80 83 84 86 86 85 80 76 77 78
27 25 21 15 10 7 0 349 349 1 12 3 347 324 295 246 227 219 212 203 182 175 169 168 166 151 145 130 105 75 68 340 348 357 349 344 349 355 356 351 2 20 73 51 37 148 108 71 125 138 93 122 140 123 95 58 48 79 106 90 71 65 81 89 89 89 83 87 91 84 77 67 87 101 83 67 75 71 82 85 84 90 83 76 75 73 78 81
35 32 28 25 23 19 6 353 359 13 17 12 12 350 332 266 208 203 197 180 161 140 128 164 164 158 165 154 92 75 345 323 344 352 348 344 351 8 19 36 47 90 77 49 42 108 115 108 182 170 150 167 101 112 107 77 59 90 106 104 99 94 100 100 90 88 89 98 96 85 85 99 102 96 75 64 91 88 86 77 72 83 76 66 66 68 74 76
35 32 30 28 24 20 6 0 5 13 16 19 30 26 9 36 173 179 169 141 118 108 104 121 127 135 146 96 72 70 333 335 345 346 345 343 356 31 39 48 58 78 74 52 50 61 91 160 189 150 136 122 80 24 4 104 113 106 103 91 95 100 93 88 90 98 89 58 94 100 114 115 77 82 88 159 158 109 91 71 52 69 72 64 65 66 72 75
31 29 28 25 25 21 10 9 14 21 32 42 48 53 54 89 140 152 142 124 107 101 101 103 102 96 88 75 77 61 345 345 351 350 347 349 23 48 36 42 52 63 67 58 53 52 64 154 161 121 110 82 76 41 41 107 114 114 108 83 72 87 80 79 99 125 90 58 108 110 116 63 12 53 118 169 153 130 117 89 65 72 73 68 72 71 77 80
26 25 24 23 25 23 18 20 30 41 54 64 68 74 80 101 125 133 132 131 121 109 108 106 101 86 73 68 81 25 354 354 356 355 356 10 60 55 31 35 49 55 61 62 47 34 32 163 121 89 23 109 104 70 77 117 113 118 105 94 99 89 89 109 135 165 103 149 180 110 92 30 7 71 135 133 135 145 119 98 84 84 84 80 84 82 83 87
19 19 20 21 23 27 30 32 45 58 69 76 80 86 94 106 117 125 130 136 140 129 132 133 117 51 66 71 75 17 6 2 2 3 14 33 64 54 34 36 52 52 55 62 42 35 53 99 104 95 63 95 101 104 120 126 102 97 69 102 143 88 29 324 332 149 89 160 222 208 63 327 318 191 161 138 146 147 112 107 114 107 110 107 101 94 91 98
11 11 13 17 22 32 39 47 60 67 74 81 88 94 99 105 108 116 122 125 131 125 126 116 99 106 79 108 148 16 7 8 13 12 18 32 61 62 52 55 58 54 59 66 55 60 91 95 88 89 56 73 103 107 104 75 52 87 84 86 115 105 348 353 14 56 109 179 230 149 167 240 223 210 179 167 175 156 128 138 148 140 146 130 124 123 115 112
0 359 2 11 22 39 55 69 77 76 79 85 90 96 98 102 104 107 115 123 122 114 111 89 88 108 76 83 320 6 6 13 15 12 14 25 43 44 48 67 67 64 68 69 65 69 81 80 70 66 353 25 83 101 93 41 21 67 112 208 30 107 198 339 36 42 118 232 36 98 176 262 219 203 188 178 184 174 142 156 173 161 162 148 148 153 145 137
350 348 350 3 23 50 79 90 91 85 84 84 87 96 101 99 96 95 99 106 109 114 100 51 53 100 90 1 330 359 8 8 5 11 22 28 33 26 39 73 71 71 74 61 60 63 57 62 68 64 35 24 62 98 86 55 12 356 92 174 166 120 171 285 63 39 14 247 15 35 161 194 245 191 182 175 169 175 153 165 186 174 176 171 177 182 172 166
343 339 343 356 23 65 107 109 103 94 89 87 87 92 97 91 87 93 93 89 91 95 74 38 34 94 69 353 349 347 349 351 357 14 28 35 42 44 54 73 52 60 75 44 38 35 32 46 74 53 50 46 54 90 91 54 250 263 60 101 139 133 144 121 199 4 14 60 32 28 110 155 242 162 167 171 161 170 166 176 189 186 196 198 195 198 196 197
340 337 343 352 21 72 127 127 113 104 98 94 91 89 87 81 79 79 70 79 87 69 51 22 24 89 15 355 357 317 321 340 359 15 25 38 47 48 52 54 24 33 47 23 25 22 13 26 58 61 31 28 27 54 118 200 198 175 128 118 122 94 104 97 218 329 15 60 60 48 84 122 171 160 177 184 170 177 180 184 194 198 203 206 202 208 211 212
338 338 344 349 16 77 142 148 129 117 109 102 99 95 86 76 73 64 52 58 59 36 46 351 17 109 305 319 322 319 324 347 9 17 18 14 15 34 42 40 38 50 45 12 9 11 28 31 37 50 354 342 335 349 167 199 163 152 150 123 128 105 69 38 129 326 40 69 39 35 107 158 179 192 205 199 189 192 195 192 200 209 209 211 210 214 217 218
338 341 346 347 6 86 145 163 153 141 129 121 113 83 81 67 58 42 36 53 64 80 108 311 34 99 351 306 332 345 342 359 20 19 11 0 336 6 24 21 36 54 45 12 349 356 60 66 38 5 288 293 292 269 192 109 107 115 102 88 95 109 85 296 190 309 15 78 16 12 120 174 195 211 215 201 195 204 203 199 210 217 213 215 215 220 221 223
346 346 343 340 343 77 154 176 179 181 188 205 236 32 145 141 84 169 3 54 43 53 74 49 60 76 6 323 349 357 350 7 17 12 7 2 346 12 5 9 43 45 7 322 333 357 54 70 11 305 269 278 307 264 132 81 70 78 94 99 64 81 122 283 164 333 2 79 29 43 124 205 221 220 223 199 198 213 206 200 213 218 217 222 219 223 225 227
349 339 336 332 328 100 163 181 197 211 225 236 220 117 145 144 127 145 134 89 18 28 58 40 46 40 350 14 5 5 53 20 6 359 2 6 22 35 6 32 63 51 343 359 40 26 50 55 318 307 289 295 9 45 90 80 72 67 80 103 72 76 103 358 30 10 14 85 179 162 158 241 242 232 231 211 210 223 211 207 212 211 214 223 222 223 224 226
347 336 332 322 304 162 160 176 198 211 221 213 165 123 126 130 134 137 103 100 45 4 32 36 49 15 353 19 8 13 56 36 351 336 353 5 35 54 57 50 63 57 7 27 92 93 74 353 311 335 17 84 49 36 60 73 65 64 83 97 107 136 108 227 279 25 23 67 148 160 176 263 247 248 245 221 219 238 226 222 225 215 214 218 220 219 215 220
350 340 329 300 217 166 156 156 176 185 178 167 140 131 138 139 146 142 89 88 73 7 3 34 88 39 14 2 355 12 73 47 46 332 350 11 53 43 76 79 70 61 28 52 86 92 87 296 318 29 40 90 88 42 44 73 50 10 102 115 138 192 156 174 172 104 40 33 107 128 23 288 223 221 248 227 216 242 236 228 236 232 227 228 227 224 217 218
355 349 343 224 180 167 155 140 156 163 149 139 136 140 144 147 156 140 87 65 29 332 340 358 66 25 2 344 347 4 111 42 83 341 350 16 27 32 82 90 74 62 273 72 73 79 59 323 10 50 30 53 84 52 26 91 84 354 238 156 159 173 146 119 108 94 34 2 147 109 32 298 259 220 243 224 209 237 231 228 238 233 229 233 232 229 223 222
1 2 56 164 179 169 156 131 145 147 133 131 145 150 151 154 160 138 91 63 25 307 346 2 13 7 350 341 338 342 86 1 309 13 12 16 3 105 78 350 65 120 211 126 78 91 28 357 46 75 52 49 68 58 3 109 96 29 236 145 124 128 136 140 134 105 38 289 280 63 107 268 304 271 250 232 226 240 234 236 240 232 226 227 227 227 223 223
6 6 77 151 177 176 179 163 157 151 129 155 158 154 156 160 158 110 80 47 359 287 351 332 335 10 356 344 348 78 88 304 303 18 16 14 357 64 69 356 49 94 210 101 66 61 3 6 23 46 49 48 59 41 336 115 102 19 305 90 116 132 152 163 143 124 167 150 30 29 120 233 289 276 284 258 236 250 251 247 244 234 227 226 226 226 221 222
10 8 82 134 166 184 209 175 163 163 145 159 157 153 162 173 192 68 78 64 333 308 19 308 333 6 347 358 20 73 174 303 21 355 350 18 21 49 74 43 115 96 337 100 118 257 351 19 14 32 44 45 65 295 255 125 95 273 268 313 175 148 143 143 123 113 103 66 348 276 157 54 273 267 336 1 240 263 257 248 245 235 228 225 226 225 222 222
22 18 80 129 140 166 182 163 161 156 146 154 151 150 165 178 159 59 73 113 309 359 153 318 355 343 341 7 17 34 9 5 74 317 333 25 31 48 83 110 129 97 33 90 136 210 187 58 86 92 59 11 266 265 216 137 7 250 153 70 70 85 78 87 103 99 56 37 268 238 173 160 278 273 321 30 254 256 250 249 247 238 229 224 224 224 222 222
37 37 80 136 130 138 145 138 141 142 145 152 152 151 155 114 58 67 60 199 345 339 271 11 3 335 9 27 0 4 23 11 345 338 353 19 12 30 70 168 107 85 41 51 80 167 316 311 153 109 66 249 251 265 196 158 350 123 114 65 53 42 40 54 55 77 65 319 261 227 170 143 293 277 239 201 219 219 223 250 258 245 233 226 224 224 220 219
44 45 64 130 145 149 145 122 133 144 147 151 150 143 125 51 59 92 136 258 330 331 5 15 346 7 33 46 4 358 20 355 342 13 20 4 2 15 26 20 51 54 25 22 22 351 357 7 358 253 262 209 343 296 185 89 68 100 94 86 87 3 9 26 357 42 96 259 261 237 148 131 222 262 244 227 236 219 203 233 253 248 237 229 226 225 220 218
45 47 55 80 122 142 136 132 140 143 145 146 143 118 89 47 24 100 267 318 343 324 19 339 315 16 29 36 18 347 352 355 3 48 43 18 35 29 25 31 58 41 15 348 358 359 8 352 313 304 284 61 44 323 335 355 23 60 56 74 93 346 4 357 314 347 210 243 259 261 65 163 232 251 250 246 248 234 216 225 241 246 241 236 231 226 224 220
47 47 52 65 84 102 114 130 137 136 140 140 122 61 77 83 3 226 284 331 29 313 36 310 322 18 36 31 11 334 355 8 359 41 62 71 68 33 1 10 89 107 137 183 41 6 343 311 335 357 329 41 81 107 352 337 359 23 73 97 101 83 46 292 276 304 261 262 280 294 326 279 271 266 241 235 239 234 230 238 244 246 244 243 238 230 228 223
48 47 50 61 74 85 103 124 132 134 137 125 82 54 72 74 223 182 300 269 266 340 39 59 341 13 47 49 345 321 35 25 357 37 27 35 55 13 333 346 20 83 113 77 80 123 102 297 321 13 320 11 59 117 152 143 15 344 160 125 124 146 143 233 232 223 257 282 295 302 292 214 232 266 231 227 252 258 251 252 251 253 250 252 258 247 234 229
49 46 46 52 63 79 101 123 131 137 134 86 62 69 97 203 227 164 248 253 271 341 331 24 55 50 11 351 337 350 101 341 12 49 30 34 79 23 344 328 349 42 84 68 266 132 113 240 262 295 286 56 37 247 131 102 41 288 161 92 89 177 147 158 197 186 189 314 299 269 237 216 218 267 261 262 292 277 261 265 264 259 256 258 265 254 238 233
53 44 41 38 43 70 111 127 130 137 122 80 64 62 156 197 198 171 198 230 117 208 302 340 55 65 348 316 341 0 3 350 32 52 31 50 154 224 310 269 304 40 93 124 206 136 90 270 281 315 305 119 149 207 124 86 173 20 50 145 214 174 120 108 243 350 82 317 279 233 251 282 317 293 297 6 308 278 265 258 252 253 260 262 255 251 240 235
61 49 41 30 26 47 117 138 140 122 89 77 80 104 203 198 165 173 195 193 153 115 91 35 354 57 351 310 319 328 342 357 42 52 40 46 161 195 304 274 245 117 148 155 194 178 138 279 290 243 224 261 184 163 53 55 144 104 254 210 193 105 81 93 33 351 41 254 269 246 247 278 320 285 315 351 293 271 261 247 248 257 257 250 250 248 242 236
87 78 46 22 15 31 97 127 136 104 79 66 79 132 182 167 159 192 182 163 165 71 84 121 228 87 179 212 300 309 345 3 3 37 66 302 321 159 183 268 202 100 224 160 124 117 117 320 299 235 179 294 348 93 333 335 74 136 206 172 108 120 256 56 131 241 302 262 279 292 282 264 208 224 277 268 238 243 251 244 241 249 243 238 246 249 246 241
66 101 35 6 5 26 77 115 112 71 72 77 92 149 164 156 251 228 185 151 108 84 84 169 188 71 140 150 238 295 355 41 20 48 101 248 300 162 153 216 208 112 267 148 133 212 102 111 283 287 236 304 357 71 247 287 29 31 39 28 39 137 174 179 150 173 188 238 273 311 322 263 218 209 212 225 224 220 232 237 230 237 237 233 240 246 245 239
50 95 9 354 2 33 74 80 71 50 66 113 158 161 117 170 248 270 232 201 110 106 102 185 150 84 147 172 194 263 17 83 132 92 159 214 218 215 192 183 210 264 300 71 94 221 58 119 242 297 332 314 296 205 199 188 165 102 54 311 325 73 148 227 240 145 141 173 222 288 299 264 237 197 199 221 228 215 215 226 232 235 237 235 236 240 241 236
52 93 329 349 355 211 99 63 54 48 85 99 125 129 68 166 153 346 330 16 96 190 140 146 140 123 152 134 208 228 26 50 104 103 227 233 159 235 215 167 173 241 54 67 63 177 128 150 206 286 316 244 239 239 194 174 166 154 176 204 189 149 130 166 287 287 108 160 189 172 277 275 252 167 200 223 228 228 221 217 230 241 239 239 239 235 236 236
56 106 322 350 11 124 81 59 23 42 98 84 87 125 69 102 111 15 350 32 58 99 68 100 120 116 147 156 205 194 131 96 168 130 212 220 196 208 199 157 155 150 121 128 257 222 142 108 132 266 255 229 250 274 150 166 164 146 182 191 144 134 131 152 237 263 127 219 202 126 261 274 255 173 204 224 226 239 233 212 227 247 246 244 247 244 241 239
78 153 347 357 10 123 70 60 333 27 70 174 3 64 30 84 107 34 23 22 6 78 45 51 127 93 149 184 155 151 167 195 192 186 207 226 231 215 181 158 152 123 105 136 262 219 105 78 61 286 292 304 307 325 39 108 120 151 231 169 145 168 150 160 189 185 179 220 192 117 256 261 264 195 216 245 257 266 259 229 229 248 258 255 252 253 249 245
115 172 6 12 13 168 88 98 141 71 90 127 65 32 355 89 100 49 46 344 344 118 90 94 205 131 141 130 108 158 201 191 199 221 190 195 232 210 161 167 173 166 172 197 177 152 211 129 85 344 330 336 341 349 347 333 209 214 241 196 173 148 105 108 172 133 242 225 182 195 260 258 258 276 257 266 272 271 266 249 231 240 257 261 257 256 253 251
73 112 327 15 37 74 111 155 141 130 148 106 82 35 9 52 59 99 153 165 209 159 136 137 192 109 108 104 76 119 205 193 238 264 95 209 254 283 170 182 182 195 228 211 151 122 184 192 134 127 269 279 289 293 284 274 226 226 244 218 207 173 149 172 175 131 238 229 176 192 257 267 270 278 276 265 253 260 266 258 240 238 248 255 258 260 256 254
78 57 320 358 27 54 74 111 95 109 148 126 86 10 62 79 304 273 141 132 200 156 94 54 174 90 71 97 93 283 265 271 50 167 195 234 256 283 206 176 179 218 210 164 114 89 98 222 189 178 200 219 235 245 233 163 219 252 253 236 217 200 184 150 110 185 214 208 199 225 251 276 283 278 277 275 268 266 269 265 254 244 245 250 253 255 257 254
92 95 100 14 12 37 38 20 49 85 143 136 109 150 136 110 309 314 100 183 199 144 71 60 118 118 164 165 136 256 264 299 47 201 215 224 251 293 242 160 188 233 182 144 101 99 93 290 236 197 218 235 246 256 258 272 254 248 252 249 226 203 179 162 205 225 176 111 259 247 236 259 274 273 272 274 275 274 271 267 264 255 250 253 254 256 259 258
68 140 181 113 99 98 62 50 91 88 79 88 104 128 123 119 185 186 178 310 28 75 112 50 336 212 197 178 147 193 275 326 278 241 228 230 262 326 323 184 215 220 157 125 333 112 125 262 240 192 240 255 262 271 266 252 257 252 248 249 239 212 185 196 227 232 185 203 256 260 246 247 264 273 272 267 268 274 273 268 265 264 258 253 255 260 259 259
79 117 307 26 97 151 136 98 110 96 74 73 95 127 150 163 193 213 196 77 7 328 99 200 264 240 199 179 135 156 223 224 272 262 221 199 218 209 291 245 234 210 135 137 253 145 153 247 238 158 280 269 260 269 269 253 266 270 259 251 244 227 212 217 236 241 227 233 253 266 270 267 266 269 271 273 274 276 277 275 272 268 260 251 251 257 257 255
143 148 148 63 75 94 52 52 90 92 63 57 93 143 157 165 189 220 203 140 164 268 147 198 240 216 181 180 154 192 218 189 210 243 187 171 240 210 208 221 172 96 104 147 202 221 202 256 223 75 322 280 264 296 305 260 251 269 271 262 247 231 229 234 243 247 244 245 252 261 271 272 268 266 270 279 283 283 275 272 270 263 254 251 253 253 253 254
111 128 138 113 79 356 11 38 74 97 77 34 135 163 181 195 193 178 184 192 180 188 185 192 210 177 141 178 198 235 235 196 207 226 187 177 221 205 209 227 141 136 176 186 167 134 174 253 6 58 340 284 320 16 327 294 272 271 273 268 252 228 220 229 234 230 221 232 250 263 267 263 265 276 281 267 265 268 265 262 265 263 252 245 249 251 251 251
101 93 115 107 82 335 77 67 44 90 130 201 157 161 205 223 206 169 140 245 213 197 194 177 164 149 153 207 227 239 230 201 218 229 194 186 219 207 215 223 161 151 165 172 165 113 144 170 107 73 284 276 312 357 320 321 315 283 264 252 239 220 214 228 246 238 217 212 233 246 244 252 268 295 288 265 254 252 253 253 257 263 257 243 242 249 253 254